Temperature
24 23 23 23 24 23 23 24 25 25 27 26 26 26 27 27 27 27 26 26 26 25 24 23 22 21 20 19 18 18 18 17 16 16 15 15 15 15 14 14 14 13 13 13
24 24 25 25 25 24 23 25 25 25 26 26 27 27 28 28 27 27 27 27 26 25 24 23 22 21 20 19 18 19 18 17 16 16 15 15 15 14 14 14 14 13 13 13
24 25 26 25 25 25 25 25 25 24 25 27 27 26 27 29 28 28 27 27 27 26 25 23 22 21 20 19 18 18 18 17 16 15 15 15 14 14 14 14 14 13 13 13
24 25 26 26 26 26 24 25 25 25 25 25 27 25 27 28 27 27 27 27 27 26 25 23 22 21 20 19 19 18 18 17 16 15 15 14 14 14 14 14 14 13 13 13
23 24 26 26 26 27 25 26 26 26 26 26 27 26 27 27 27 27 27 27 26 26 25 24 23 21 20 19 18 18 17 16 16 15 15 14 14 14 14 14 14 14 14 13
25 26 27 27 27 27 27 27 27 27 26 25 27 26 26 27 27 27 27 27 26 26 25 24 22 21 20 19 18 17 17 16 15 15 14 14 14 14 14 14 14 14 14 14
26 27 27 27 27 27 27 26 25 24 24 25 27 27 27 27 28 28 27 27 26 25 25 23 22 21 20 19 18 17 17 16 15 15 15 15 14 14 14 14 14 14 14 14
26 26 27 27 27 27 27 26 24 23 23 25 27 27 27 28 28 27 27 27 26 25 24 23 22 20 20 19 18 17 17 16 16 15 15 15 15 15 14 14 14 14 14 14
26 26 28 28 28 27 27 27 27 26 25 25 27 28 28 28 28 27 27 27 26 25 24 23 22 20 19 19 18 17 17 16 16 15 15 15 15 15 15 14 14 14 14 14
27 26 27 27 27 27 27 27 26 25 24 24 25 26 26 26 27 27 27 26 26 25 24 23 22 21 20 19 18 17 17 16 16 15 15 15 15 15 15 14 14 14 14 14
28 27 26 26 26 26 26 26 26 26 25 24 24 25 27 27 27 27 27 27 26 25 24 23 22 21 20 19 18 17 17 16 16 16 15 15 15 15 14 14 14 14 14 14
28 27 26 26 28 28 27 27 26 24 24 25 24 25 28 27 27 27 27 27 26 25 24 23 22 21 20 19 18 17 17 17 16 16 15 15 15 15 15 15 14 14 14 14
26 26 25 24 25 26 26 27 26 26 25 24 23 25 28 27 27 27 27 26 26 25 24 23 22 21 20 19 18 18 17 17 16 16 16 15 15 15 15 15 15 14 14 14
25 26 25 24 24 26 26 26 26 25 24 24 24 25 26 26 26 26 27 27 26 25 24 23 22 21 20 20 19 18 18 17 17 16 16 16 16 15 15 15 15 15 15 15
26 25 26 26 27 27 26 26 26 26 25 25 25 25 26 26 26 26 27 27 26 26 25 24 22 21 20 20 19 18 18 17 17 16 16 16 16 16 15 15 15 15 15 15
26 25 25 25 27 27 26 27 27 26 26 26 25 25 26 26 26 26 26 26 26 25 25 24 23 22 21 20 19 19 18 18 17 17 16 16 16 16 16 15 15 15 15 15
25 25 24 24 25 26 25 26 26 26 26 25 24 24 25 25 25 25 24 24 24 24 25 24 24 22 22 21 20 19 19 18 17 17 16 16 16 16 16 15 15 15 15 15
24 24 24 24 24 23 26 28 27 25 25 25 25 25 25 25 25 24 24 23 23 23 24 24 24 23 22 22 21 20 19 18 18 17 17 16 16 16 16 16 15 16 15 15
25 24 23 23 23 24 26 26 26 26 24 25 24 24 24 24 24 24 23 22 22 22 23 23 23 23 23 22 22 20 20 19 18 18 17 17 17 16 16 16 16 16 15 15
25 24 23 23 22 22 24 25 26 25 23 24 24 23 23 23 22 22 22 21 21 22 22 22 23 23 23 22 22 21 20 20 19 18 18 17 17 16 16 16 16 16 15 15
23 23 22 22 22 23 24 25 25 23 22 22 22 21 21 21 21 21 21 21 21 21 21 21 22 22 23 22 22 21 21 20 20 19 18 18 17 17 16 16 16 16 15 15
23 23 23 23 22 22 23 23 22 21 22 21 21 20 20 20 20 20 20 20 20 20 20 21 21 21 22 22 22 21 21 21 20 19 18 18 17 17 16 16 16 16 16 15
23 23 22 22 22 22 22 21 20 20 20 20 19 19 19 19 19 19 19 19 19 19 19 20 20 20 21 21 21 21 21 21 20 19 19 18 17 17 17 16 16 16 16 15
22 23 22 21 22 22 21 20 20 19 19 18 18 18 18 17 17 17 17 18 18 18 18 19 19 19 20 20 20 20 20 20 20 19 19 18 17 17 17 16 16 16 15 15
19 20 19 19 20 20 20 19 18 18 17 17 17 17 16 16 16 16 16 16 16 17 17 18 18 18 19 19 20 20 20 20 20 19 18 18 17 17 16 16 16 15 15 15
19 19 18 18 19 19 18 18 17 16 16 16 16 16 16 16 15 15 15 15 15 15 16 16 17 17 18 18 19 19 19 19 19 19 18 17 17 16 16 16 16 15 15 15
Wind_Speed
10 8 9 9 8 3 6 6 2 1 2 4 7 7 7 9 10 9 8 8 9 10 10 11 10 9 8 6 3 5 5 6 4 2 2 3 2 2 3 3 3 3 5 6
9 11 11 9 6 4 8 7 2 3 3 5 8 9 8 8 10 10 9 9 10 10 10 11 11 10 8 7 4 4 6 6 6 3 2 1 2 1 2 2 3 5 5 6
12 10 9 8 8 8 7 4 4 4 7 10 10 9 7 5 6 7 7 6 8 11 12 13 11 9 9 8 6 3 7 7 6 4 2 2 2 1 1 1 3 2 2 3
2 1 8 8 7 6 3 4 4 7 8 6 6 6 6 4 6 6 6 5 5 6 9 12 12 10 9 8 6 5 7 6 6 4 3 1 1 2 2 1 2 0 2 3
3 6 8 6 4 3 2 4 8 10 10 11 10 7 1 5 5 6 8 8 6 6 9 10 11 11 9 8 7 4 7 7 6 4 4 1 1 1 1 1 1 1 2 2
5 6 5 2 2 2 3 7 11 11 9 8 5 3 3 4 5 3 5 8 8 7 8 10 10 10 9 8 7 6 6 6 6 4 4 4 2 1 1 1 1 2 0 1
5 6 4 1 3 5 6 8 5 3 3 3 4 3 0 7 7 4 3 3 8 8 9 10 11 10 10 10 9 7 8 6 6 5 5 4 3 2 2 0 0 1 1 1
5 7 8 6 6 4 5 7 4 3 5 7 7 2 5 10 7 4 1 1 4 8 8 10 11 11 10 10 10 8 8 7 6 6 4 3 3 3 1 1 1 1 1 2
1 3 6 5 4 5 5 4 6 7 10 9 4 3 5 8 6 4 3 2 3 7 8 9 11 11 11 11 10 9 8 7 7 5 4 3 3 2 2 1 1 1 0 1
2 2 5 5 3 6 7 7 6 5 5 6 7 5 5 6 6 4 1 5 5 6 8 9 10 11 11 10 10 9 8 8 7 7 5 4 2 3 3 1 1 2 2 2
7 2 4 6 6 7 7 7 6 5 6 6 6 4 3 5 5 4 3 1 5 7 8 8 9 10 11 11 10 9 9 8 7 7 6 5 5 4 4 3 2 1 3 2
5 4 3 5 2 2 5 6 6 5 6 7 7 5 4 6 4 2 1 2 2 6 8 8 9 10 10 11 11 10 10 9 8 7 6 6 6 5 4 5 4 4 3 1
8 5 4 1 1 2 5 6 6 6 7 8 9 6 0 1 2 3 3 4 4 7 8 9 9 9 10 11 11 10 10 9 9 7 6 6 6 6 5 5 6 4 2 2
4 8 9 7 6 5 7 7 7 8 8 10 11 11 9 8 7 6 4 4 5 7 9 10 10 9 10 11 11 11 10 9 10 8 7 6 6 6 5 4 5 4 3 3
5 10 12 12 11 10 12 12 10 11 12 13 13 12 9 9 9 8 7 5 4 5 8 10 11 10 10 10 11 11 11 10 10 10 9 7 6 6 5 4 4 3 2 3
6 10 13 14 14 14 14 14 14 13 13 13 11 8 8 9 8 8 8 7 5 4 5 8 12 12 12 12 11 10 11 11 10 10 9 8 7 7 7 6 6 5 4 3
9 12 13 14 15 15 14 11 9 7 6 7 7 6 8 9 9 8 8 8 8 6 5 6 9 12 13 13 13 12 12 12 11 10 10 9 8 7 7 7 6 6 5 4
13 12 9 12 13 14 9 3 2 2 3 3 4 6 8 8 7 4 7 8 9 9 6 4 6 9 10 12 13 12 11 13 12 11 10 10 9 8 7 6 6 6 5 5
13 11 9 10 12 12 11 6 5 4 2 4 6 8 10 11 7 7 13 11 9 8 7 5 4 6 9 10 12 13 13 13 13 12 11 10 10 9 8 8 7 6 6 6
7 8 8 9 12 12 6 6 6 4 2 6 7 8 10 11 7 8 13 13 12 10 8 7 3 4 7 9 10 12 12 13 12 11 11 10 10 10 9 8 7 5 5 5
5 6 9 11 13 9 6 5 5 4 3 8 9 10 10 9 9 10 13 12 11 10 9 8 5 3 4 6 8 9 10 11 11 11 10 10 10 10 9 7 6 4 4 4
10 8 8 9 12 5 9 6 5 6 7 8 9 9 10 10 11 11 12 12 12 11 9 8 6 5 3 4 7 8 9 9 10 11 11 10 9 8 8 7 6 4 4 4
7 6 6 7 5 3 6 5 6 7 8 9 9 9 11 11 12 12 12 11 11 11 9 8 7 6 5 4 6 8 7 8 11 11 11 10 9 7 7 8 7 5 4 4
11 11 10 10 9 9 6 5 5 6 8 9 9 10 11 11 12 12 12 11 11 11 10 8 8 7 6 6 7 7 7 8 11 12 11 9 9 8 7 6 6 5 4 4
12 12 13 15 13 12 8 8 8 9 9 10 11 11 12 12 11 11 11 11 11 11 10 9 9 9 8 7 6 7 8 9 10 11 11 10 9 9 8 5 3 4 3 3
15 15 14 14 12 11 11 11 11 11 11 12 12 12 11 11 11 11 10 10 10 11 12 11 10 10 10 9 7 6 8 10 11 11 11 9 8 8 9 9 6 10 7 9
Wind_Direction
183 187 199 211 211 231 305 287 246 251 171 247 264 265 246 205 198 208 212 202 192 179 171 148 136 130 134 135 151 129 135 120 105 64 20 49 54 11 58 59 59 6 13 8
178 206 205 203 214 229 257 284 342 6 304 277 278 274 260 221 196 199 213 208 189 177 155 140 146 153 154 144 181 170 124 99 94 80 32 79 64 18 74 25 64 34 28 19
187 201 191 194 204 229 260 314 349 317 293 276 273 267 253 207 185 181 201 232 205 177 165 157 161 155 148 151 179 148 109 123 116 117 69 39 47 321 62 53 75 48 38 43
188 211 182 199 209 223 281 325 307 280 283 289 289 290 268 172 155 176 187 213 230 177 161 157 158 150 159 159 163 150 128 122 109 115 92 33 41 33 42 9 83 350 91 72
188 229 212 203 231 257 214 278 283 277 280 282 275 280 319 137 155 179 180 188 201 180 158 153 150 150 157 146 142 133 118 120 123 120 123 215 62 20 12 354 51 339 97 101
184 206 212 199 226 291 296 277 264 255 264 276 289 299 313 87 84 77 153 173 178 180 156 145 139 138 140 135 136 136 130 133 136 151 177 196 149 233 264 295 8 324 157 116
179 184 179 215 235 218 245 270 296 309 268 291 319 286 130 88 79 50 36 154 161 159 150 145 141 147 149 150 152 155 152 156 161 181 211 193 175 213 252 210 84 311 336 84
190 177 175 193 241 259 242 266 286 315 311 311 298 276 99 102 105 112 127 230 153 152 155 153 152 155 159 160 161 167 166 169 175 187 209 204 161 196 199 101 348 301 18 73
320 134 151 168 237 284 282 266 285 286 290 296 314 0 109 107 107 125 151 179 187 159 155 159 158 162 166 166 167 174 171 175 176 184 202 204 202 168 114 160 231 308 33 84
290 159 165 157 217 240 277 315 318 304 313 313 316 338 51 68 57 52 125 185 196 168 162 166 162 166 168 166 168 174 176 180 176 180 199 193 180 145 138 272 37 5 5 61
309 278 174 179 216 231 214 243 262 279 282 294 310 329 28 72 66 32 353 255 188 170 165 165 164 168 167 163 167 177 181 183 178 184 189 191 174 174 178 186 151 230 258 219
317 307 259 225 219 306 294 282 286 292 302 308 303 305 78 101 120 143 309 292 210 165 162 163 165 167 168 169 174 181 182 182 178 183 184 192 176 180 203 177 175 215 235 286
345 307 312 343 331 264 263 260 271 284 287 284 285 290 220 179 210 213 212 222 204 172 167 166 169 173 174 174 177 179 183 178 171 177 193 195 183 186 202 187 170 207 198 227
303 287 289 283 278 272 275 267 257 265 273 279 284 297 315 329 335 326 299 238 218 190 180 176 175 179 179 177 181 179 183 175 169 174 195 201 191 189 197 189 164 198 190 192
271 283 295 298 297 289 286 283 273 265 269 275 284 293 313 326 325 320 314 297 261 220 190 182 180 183 184 181 186 184 179 176 175 174 190 202 196 187 185 177 166 191 218 207
282 288 295 293 293 289 283 277 271 270 272 277 283 296 329 332 335 333 330 327 306 270 226 195 185 186 189 187 188 189 177 175 175 177 186 191 198 189 180 186 177 188 214 230
291 292 295 293 300 299 284 283 280 289 308 315 315 332 345 340 337 345 348 340 321 304 271 220 197 192 191 189 189 194 183 177 181 184 186 184 190 193 183 190 183 188 204 216
265 278 287 288 291 280 284 304 325 322 320 341 329 339 344 334 325 12 14 356 341 331 310 256 208 192 190 188 186 189 181 177 183 189 188 181 180 186 182 187 190 195 204 207
242 256 267 272 275 277 287 307 304 293 328 17 9 9 1 347 337 35 19 4 346 331 318 294 231 201 192 194 185 184 183 182 186 190 184 178 175 179 182 191 200 203 204 208
228 241 253 266 277 282 311 4 356 314 292 34 25 17 6 3 360 2 0 355 350 342 332 321 282 227 201 192 183 183 187 185 186 182 178 175 173 176 183 190 198 200 197 204
240 242 244 259 268 276 349 350 330 300 25 37 32 19 8 2 352 344 348 349 344 340 335 331 315 275 223 185 177 187 192 187 178 169 168 171 173 173 175 180 185 188 187 196
296 288 271 268 270 283 25 17 19 20 24 26 22 12 358 347 342 343 345 343 339 339 336 333 321 300 266 196 185 197 202 183 162 159 163 167 168 172 171 164 169 176 180 194
284 295 305 301 317 20 39 40 34 12 357 3 3 356 348 339 337 339 339 338 337 334 334 330 317 300 279 232 205 210 202 171 155 157 161 162 162 165 158 156 166 176 181 194
295 317 309 299 300 316 337 356 2 1 348 345 344 340 337 331 330 332 332 333 336 334 329 323 313 299 282 256 225 212 194 169 161 162 165 165 167 163 156 154 165 172 181 189
299 305 297 292 297 306 319 342 350 346 338 335 334 330 328 326 325 327 327 330 332 330 326 322 313 303 289 271 241 213 197 181 173 169 171 174 173 165 160 139 104 134 102 124
270 273 275 281 299 305 310 327 331 328 327 327 324 321 320 318 319 322 322 323 324 324 324 322 317 310 303 290 259 223 206 190 180 177 180 178 173 165 154 139 104 65 95 96
Height
1473 1477 1480 1478 1478 1481 1483 1483 1483 1479 1473 1476 1476 1474 1471 1471 1473 1476 1478 1481 1483 1487 1490 1493 1497 1500 1503 1504 1506 1506 1506 1506 1505 1505 1505 1505 1505 1505 1504 1503 1502 1501 1500 1499
1475 1476 1471 1472 1473 1478 1482 1482 1481 1478 1473 1475 1473 1470 1465 1464 1467 1471 1474 1476 1480 1484 1487 1491 1495 1498 1501 1503 1505 1506 1505 1505 1505 1504 1505 1505 1504 1504 1504 1503 1502 1501 1500 1499
1473 1470 1468 1472 1476 1479 1478 1481 1482 1484 1477 1471 1472 1472 1464 1460 1463 1467 1471 1474 1476 1479 1484 1488 1492 1496 1499 1501 1503 1505 1504 1504 1503 1504 1504 1504 1504 1504 1504 1503 1502 1501 1500 1499
1472 1468 1469 1471 1474 1475 1484 1478 1477 1478 1481 1480 1473 1485 1467 1458 1462 1465 1469 1472 1475 1477 1481 1485 1489 1493 1497 1499 1501 1503 1502 1503 1503 1503 1503 1503 1504 1504 1503 1503 1502 1501 1500 1499
1477 1472 1471 1472 1472 1471 1478 1474 1475 1474 1476 1478 1471 1477 1470 1460 1465 1464 1466 1470 1473 1476 1479 1483 1487 1490 1494 1497 1499 1501 1501 1501 1502 1502 1502 1502 1503 1503 1503 1503 1502 1502 1501 1499
1470 1468 1467 1468 1469 1470 1472 1473 1472 1470 1475 1487 1473 1477 1477 1464 1464 1463 1463 1467 1471 1474 1478 1482 1485 1488 1492 1495 1497 1498 1499 1500 1500 1501 1501 1502 1502 1502 1502 1502 1502 1501 1501 1500
1471 1468 1466 1468 1471 1471 1473 1481 1490 1493 1494 1489 1467 1471 1471 1459 1459 1462 1464 1466 1468 1472 1476 1480 1483 1486 1490 1492 1494 1496 1497 1498 1499 1499 1500 1501 1501 1501 1502 1501 1501 1501 1501 1500
1474 1476 1467 1468 1471 1472 1472 1476 1495 1509 1505 1488 1471 1472 1464 1456 1459 1462 1465 1466 1468 1471 1475 1478 1481 1484 1487 1490 1492 1494 1495 1496 1497 1498 1499 1500 1500 1500 1501 1501 1501 1501 1500 1500
1471 1473 1463 1465 1466 1468 1472 1473 1471 1482 1484 1486 1474 1464 1457 1455 1459 1462 1464 1466 1468 1470 1473 1476 1479 1482 1485 1487 1489 1491 1493 1494 1495 1497 1498 1499 1499 1499 1500 1500 1500 1500 1500 1499
1463 1473 1467 1466 1469 1469 1471 1471 1476 1484 1496 1500 1486 1474 1473 1464 1462 1462 1463 1465 1467 1469 1472 1474 1477 1479 1482 1484 1486 1489 1491 1492 1493 1495 1496 1497 1498 1498 1498 1499 1499 1499 1499 1498
1461 1469 1471 1470 1473 1471 1472 1474 1475 1479 1481 1495 1499 1486 1460 1461 1462 1463 1463 1463 1465 1467 1469 1472 1474 1477 1479 1481 1484 1486 1488 1490 1491 1493 1494 1495 1496 1497 1497 1497 1497 1497 1498 1498
1462 1467 1474 1469 1463 1463 1466 1470 1474 1487 1487 1484 1491 1484 1456 1457 1459 1460 1462 1462 1463 1464 1467 1469 1472 1474 1476 1478 1480 1483 1485 1487 1489 1490 1492 1493 1494 1495 1496 1496 1496 1496 1497 1497
1468 1471 1482 1484 1479 1471 1470 1468 1470 1474 1480 1485 1491 1481 1455 1455 1456 1457 1458 1459 1460 1461 1464 1466 1469 1471 1473 1475 1477 1479 1482 1484 1486 1488 1490 1491 1492 1493 1494 1495 1495 1496 1496 1496
1472 1472 1479 1489 1481 1472 1471 1468 1467 1473 1483 1483 1479 1472 1460 1456 1456 1455 1455 1455 1456 1457 1459 1462 1464 1467 1469 1471 1473 1476 1478 1481 1482 1484 1487 1489 1490 1491 1493 1494 1494 1494 1495 1495
1470 1473 1469 1466 1462 1462 1464 1464 1464 1468 1469 1474 1470 1466 1460 1457 1456 1454 1453 1453 1453 1454 1455 1457 1459 1462 1465 1467 1470 1472 1474 1477 1479 1481 1483 1486 1488 1489 1490 1491 1492 1493 1493 1494
1468 1472 1470 1469 1462 1460 1461 1459 1458 1459 1459 1461 1461 1461 1455 1454 1454 1453 1452 1452 1451 1451 1452 1453 1454 1457 1460 1463 1465 1468 1470 1472 1475 1477 1480 1482 1484 1486 1488 1489 1490 1491 1491 1492
1472 1473 1476 1476 1465 1464 1467 1455 1454 1455 1454 1457 1462 1460 1455 1455 1454 1454 1453 1452 1451 1449 1449 1449 1450 1452 1455 1457 1460 1464 1466 1468 1471 1474 1476 1479 1481 1483 1485 1486 1487 1488 1489 1490
1472 1473 1475 1475 1474 1482 1460 1445 1447 1453 1454 1455 1456 1455 1455 1454 1453 1454 1453 1452 1450 1448 1447 1446 1446 1448 1450 1453 1456 1459 1462 1464 1467 1470 1472 1475 1477 1479 1481 1483 1484 1485 1486 1487
1464 1469 1475 1477 1478 1469 1454 1447 1447 1451 1456 1454 1455 1456 1456 1454 1451 1453 1453 1452 1450 1448 1445 1444 1443 1444 1447 1450 1452 1455 1458 1460 1463 1465 1468 1470 1473 1475 1477 1479 1480 1482 1483 1484
1460 1463 1471 1473 1479 1478 1460 1450 1447 1451 1460 1457 1457 1458 1458 1456 1457 1457 1455 1452 1449 1447 1444 1442 1441 1442 1444 1446 1448 1451 1453 1456 1458 1460 1464 1466 1469 1471 1473 1475 1477 1478 1479 1480
1465 1466 1470 1473 1474 1463 1455 1451 1450 1463 1467 1460 1460 1461 1462 1461 1462 1460 1456 1453 1450 1447 1444 1441 1440 1440 1441 1442 1445 1447 1449 1451 1453 1456 1459 1462 1465 1467 1469 1471 1473 1474 1475 1476
1465 1467 1466 1465 1470 1468 1457 1455 1460 1465 1462 1462 1463 1464 1464 1463 1461 1459 1456 1453 1450 1446 1444 1441 1439 1439 1439 1440 1441 1443 1445 1447 1449 1452 1455 1458 1460 1463 1465 1467 1468 1470 1471 1472
1461 1462 1463 1463 1464 1460 1459 1461 1463 1464 1464 1464 1464 1464 1464 1462 1460 1458 1455 1452 1449 1446 1443 1441 1439 1437 1437 1437 1438 1439 1441 1443 1445 1447 1449 1453 1455 1458 1460 1462 1463 1465 1466 1467
1463 1461 1461 1461 1458 1458 1460 1461 1463 1464 1464 1464 1464 1464 1463 1461 1459 1457 1454 1451 1448 1445 1442 1440 1437 1436 1435 1434 1435 1436 1438 1439 1440 1442 1444 1447 1450 1453 1455 1457 1458 1460 1461 1462
1469 1468 1466 1464 1461 1461 1461 1462 1462 1463 1463 1463 1462 1462 1461 1459 1457 1455 1452 1449 1446 1443 1441 1438 1436 1433 1432 1431 1431 1431 1433 1434 1435 1437 1439 1442 1444 1447 1449 1451 1453 1454 1456 1458
1468 1467 1466 1463 1462 1463 1462 1462 1462 1462 1461 1461 1460 1459 1458 1456 1454 1452 1449 1447 1444 1441 1438 1435 1432 1430 1428 1427 1426 1426 1427 1429 1430 1431 1433 1436 1438 1441 1443 1445 1447 1449 1451 1453